カタログに戻る

STARLINK-37959

運用中通信SSO
NORAD 69696·PAYLOAD·🇺🇸 United States

打ち上げ Jun 25, 2026 から Vandenberg Space Force Base

Loading…

次のパス (今後24時間)

TLE

最新Source: CelesTrak SupGP

元期: Sep 14, 2026, 14:40 UTC

1 69696C 26145V   26257.61159722 -.00017073  00000+0 -53011-3 0  2578
2 69696  97.2842 104.4116 0001733  93.4224 280.2011 15.33439672    13

AllMySatでSTARLINK-37959をリアルタイム追跡

Download on the App Store